TimePDT,TemperatureF,Dew PointF,Humidity,Sea Level PressureIn,VisibilityMPH,Wind Direction,Wind SpeedMPH,Gust SpeedMPH,PrecipitationIn,Events,Conditions,WindDirDegrees,DateUTC
12:56 AM,87.1,62.1,43,29.90,10.0,South,12.7,-,N/A,,Scattered Clouds,190,2013-08-30 07:56:00
1:56 AM,84.0,62.1,47,29.90,10.0,South,13.8,18.4,N/A,,Mostly Cloudy,180,2013-08-30 08:56:00
2:56 AM,82.9,61.0,47,29.91,10.0,South,10.4,-,N/A,,Mostly Cloudy,180,2013-08-30 09:56:00
3:56 AM,82.9,60.1,46,29.91,10.0,South,6.9,-,N/A,,Mostly Cloudy,180,2013-08-30 10:56:00
4:56 AM,81.0,63.0,54,29.89,10.0,ESE,8.1,-,N/A,,Mostly Cloudy,110,2013-08-30 11:56:00
5:56 AM,80.1,64.9,60,29.94,10.0,ESE,3.5,-,N/A,,Mostly Cloudy,120,2013-08-30 12:56:00
6:56 AM,79.0,64.9,62,29.97,10.0,East,5.8,-,N/A,,Mostly Cloudy,100,2013-08-30 13:56:00
7:41 AM,78.8,66.2,65,30.06,10.0,East,6.9,-,N/A,Thunderstorm,Thunderstorm,80,2013-08-30 14:41:00
7:56 AM,78.1,68.0,71,29.99,10.0,Calm,Calm,-,N/A,Thunderstorm,Thunderstorm,0,2013-08-30 14:56:00
8:14 AM,77.0,69.8,78,30.07,10.0,Calm,Calm,-,0.00,,Mostly Cloudy,0,2013-08-30 15:14:00
8:56 AM,79.0,69.1,72,30.00,10.0,Calm,Calm,-,0.00,,Overcast,0,2013-08-30 15:56:00
9:56 AM,75.9,70.0,82,30.01,10.0,South,4.6,-,0.01,Rain,Light Rain,180,2013-08-30 16:56:00
10:56 AM,78.1,73.9,87,30.01,10.0,Calm,Calm,-,0.04,,Mostly Cloudy,0,2013-08-30 17:56:00
11:06 AM,78.8,75.2,89,30.08,10.0,ENE,3.5,-,N/A,,Mostly Cloudy,70,2013-08-30 18:06:00
11:56 AM,78.1,73.0,84,30.00,10.0,Calm,Calm,-,N/A,,Mostly Cloudy,0,2013-08-30 18:56:00
12:56 PM,84.9,71.1,63,29.96,10.0,Variable,3.5,-,N/A,,Mostly Cloudy,0,2013-08-30 19:56:00
1:56 PM,87.1,66.9,51,29.94,10.0,SSE,4.6,-,N/A,,Mostly Cloudy,150,2013-08-30 20:56:00
2:56 PM,88.0,68.0,51,29.89,10.0,South,3.5,-,N/A,,Mostly Cloudy,190,2013-08-30 21:56:00
3:56 PM,90.0,68.0,48,29.88,10.0,South,3.5,-,N/A,,Mostly Cloudy,190,2013-08-30 22:56:00
4:56 PM,91.0,68.0,47,29.86,10.0,South,8.1,-,N/A,,Mostly Cloudy,170,2013-08-30 23:56:00
5:56 PM,91.0,66.9,45,29.85,10.0,SSE,4.6,-,N/A,,Mostly Cloudy,160,2013-08-31 00:56:00
6:56 PM,90.0,63.0,40,29.86,10.0,South,12.7,-,N/A,,Mostly Cloudy,190,2013-08-31 01:56:00
7:56 PM,89.1,64.9,45,29.86,10.0,South,13.8,-,N/A,,Mostly Cloudy,190,2013-08-31 02:56:00
8:56 PM,88.0,64.0,45,29.88,10.0,South,8.1,-,N/A,,Mostly Cloudy,180,2013-08-31 03:56:00
9:56 PM,86.0,64.9,49,29.89,10.0,South,11.5,-,N/A,,Scattered Clouds,190,2013-08-31 04:56:00
10:56 PM,86.0,64.9,49,29.88,10.0,South,8.1,-,N/A,,Scattered Clouds,190,2013-08-31 05:56:00
11:56 PM,84.9,66.0,53,29.88,10.0,South,10.4,-,N/A,,Mostly Cloudy,190,2013-08-31 06:56:00